Location: Bronschhofen
(47.4788°N, 9.0353°E)
Time: 19:07:30
(UTC+00:00)

BREEZE-M DEB (TANK) - Pass Details

Date: 20 May 2022
Orbit: 322 x 13838 km, 49.6° (Epoch: 05 July)

Event Time Altitude Azimuth Distance (km) Brightness Sun altitude
Rises 02:30:17 0° 262° (W) 7,501 8.1 -10.2°
Reaches altitude 10° 02:37:17 10° 265° (W) 4,694 7.1 -9.4°
Maximum altitude 02:46:43 72° 350° (N) 797 3.7 -8.2°
Drops below altitude 10° 02:49:53 10° 76° (ENE) 1,644 6.4 -7.8°
Sets 02:51:15 0° 79° (E) 2,297 7.2 -7.7°
